Murray, KY

5:03 PM CST on December 05, 2019 (GMT -0600)
Kyle-Oakley

Weather History for KCEY - October, 2019

Change the Weather History Date:

Thursday, October 31, 2019

  Actual Average (KPAH) Record (KPAH)
Temperature  
Mean Temperature 39 °F 54 °F  
Max Temperature 50 °F 66 °F 85 °F (1950)
Min Temperature 28 °F 43 °F 24 °F (1993)
Degree Days  
Heating Degree Days 26 11  
Month to date heating degree days 228  
Since 1 July heating degree days 267  
Cooling Degree Days 0 0  
Month to date cooling degree days 38  
Year to date cooling degree days 1538  
Moisture  
Dew Point 34 °F    
Average Humidity 91    
Maximum Humidity 100    
Minimum Humidity 65    
Precipitation  
Precipitation 0.41 in 0.12 in 2.50 in (1941)
Month to date precipitation 3.96  
Year to date precipitation 40.19  
Snow  
Snow 0.00 in 0.00 in 0.10 in (1993)
Month to date snowfall 0.1  
Since 1 July snowfall 0.1  
Since 1 September snowfall 0.1  
Snow Depth -    
Sea Level Pressure  
Sea Level Pressure 30.09 in    
Wind  
Wind Speed 10 mph (West)    
Max Wind Speed 23 mph    
Max Gust Speed 30 mph    
Visibility 8 miles    
Events      
T = Trace of Precipitation, MM = Missing Value Source: NWS Daily Summary

Daily Weather History Graph

Daily Weather History Graph

Search for Another Location

Airport or City:

Astronomy

Oct. 31, 2019 Rise Set
Actual Time 7:15 AM CDT 5:57 PM CDT
Civil Twilight 6:49 AM CDT 6:24 PM CDT
Nautical Twilight 6:18 AM CDT 6:54 PM CDT
Astronomical Twilight 5:48 AM CDT 7:25 PM CDT
Moon 10:59 AM CDT (10/31) 8:58 PM CDT (10/31)
Length of Visible Light 11h 35m
Length of Day
10h 42m
Waxing Crescent, 16% of the Moon is Illuminated
Oct 31
Waxing Crescent
Nov 4
First Quarter
Nov 12
Full
Nov 19
Last Quarter
Nov 26
New

Hourly Weather History & Observations

Time (CDT) Temp. Windchill Dew Point Humidity Pressure Visibility Wind Dir Wind Speed Gust Speed Precip Events Conditions
12:15 AM 50.0 °F - 50.0 °F 100% 29.85 in 1.0 mi Calm Calm - N/A   Overcast
12:35 AM 50.0 °F - 50.0 °F 100% 29.84 in 1.5 mi Calm Calm - N/A   Overcast
12:55 AM 50.0 °F - 50.0 °F 100% 29.84 in 2.0 mi West 8.1 mph - 0.01 in   Unknown
1:35 AM 50.0 °F - 50.0 °F 100% 29.85 in 1.5 mi West 13.8 mph 21.9 mph 0.01 in   Overcast
1:55 AM 48.2 °F - 48.2 °F 100% 29.85 in 2.0 mi WNW 15.0 mph 19.6 mph 0.03 in   Unknown
2:15 AM 46.4 °F 40.4 °F 46.4 °F 100% 29.86 in 3.0 mi West 13.8 mph 20.7 mph 0.04 in   Overcast
2:35 AM 44.6 °F 37.2 °F 44.6 °F 100% 29.85 in 5.0 mi WNW 17.3 mph 23.0 mph 0.08 in   Unknown
2:55 AM 42.8 °F 34.8 °F 42.8 °F 100% 29.86 in 6.0 mi WNW 17.3 mph 20.7 mph 0.11 in   Overcast
3:15 AM 41.0 °F 32.5 °F 41.0 °F 100% 29.87 in 4.0 mi WNW 17.3 mph 20.7 mph 0.05 in   Unknown
3:35 AM 41.0 °F 33.5 °F 41.0 °F 100% 29.85 in 4.0 mi NNW 13.8 mph 17.3 mph 0.12 in   Unknown
3:55 AM 41.0 °F 33.1 °F 41.0 °F 100% 29.86 in 7.0 mi WNW 15.0 mph 19.6 mph 0.16 in   Overcast
4:15 AM 41.0 °F 33.1 °F 41.0 °F 100% 29.86 in 5.0 mi WNW 15.0 mph - 0.04 in   Overcast
4:35 AM 41.0 °F 33.5 °F 41.0 °F 100% 29.87 in 10.0 mi WNW 13.8 mph 24.2 mph 0.05 in   Overcast
4:55 AM 39.2 °F 30.8 °F 39.2 °F 100% 29.90 in 10.0 mi West 15.0 mph 25.3 mph 0.05 in   Overcast
5:15 AM 39.2 °F 30.2 °F 39.2 °F 100% 29.90 in 2.5 mi WNW 17.3 mph 27.6 mph 0.01 in   Overcast
5:35 AM 39.2 °F 31.2 °F 39.2 °F 100% 29.91 in 10.0 mi WNW 13.8 mph 23.0 mph 0.02 in   Unknown
5:55 AM 39.2 °F 30.8 °F 39.2 °F 100% 29.92 in 10.0 mi West 15.0 mph 21.9 mph 0.03 in   Unknown
6:15 AM 39.2 °F 32.0 °F 39.2 °F 100% 29.91 in 10.0 mi West 11.5 mph - 0.01 in   Unknown
6:35 AM 39.2 °F 33.6 °F 39.2 °F 100% 29.94 in 10.0 mi West 8.1 mph 20.7 mph 0.01 in   Unknown
6:55 AM 37.4 °F 28.2 °F 37.4 °F 100% 29.95 in 10.0 mi West 16.1 mph 20.7 mph 0.01 in   Unknown
7:15 AM 37.4 °F 28.9 °F 37.4 °F 100% 29.95 in 10.0 mi West 13.8 mph 24.2 mph N/A   Unknown
7:35 AM 37.4 °F 28.9 °F 37.4 °F 100% 29.95 in 10.0 mi West 13.8 mph 21.9 mph N/A   Overcast
7:55 AM 37.4 °F 27.8 °F 37.4 °F 100% 29.97 in 8.0 mi West 17.3 mph 24.2 mph N/A   Overcast
8:15 AM 35.6 °F 25.5 °F 35.6 °F 100% 29.99 in 5.0 mi West 17.3 mph 27.6 mph N/A   Overcast
8:35 AM 35.6 °F 27.1 °F 35.6 °F 100% 30.00 in 5.0 mi West 12.7 mph 24.2 mph N/A   Overcast
8:55 AM 35.6 °F 26.2 °F 35.6 °F 100% 30.02 in 5.0 mi West 15.0 mph 20.7 mph N/A   Mostly Cloudy
9:15 AM 35.6 °F 26.2 °F 35.6 °F 100% 30.03 in 10.0 mi West 15.0 mph 25.3 mph 0.01 in   Mostly Cloudy
9:35 AM 35.6 °F 25.9 °F 35.6 °F 100% 30.04 in 7.0 mi West 16.1 mph 26.5 mph 0.01 in   Overcast
9:55 AM 35.6 °F 26.6 °F 35.6 °F 100% 30.05 in 10.0 mi West 13.8 mph 19.6 mph 0.01 in   Overcast
10:15 AM 35.6 °F 26.6 °F 35.6 °F 100% 30.06 in 10.0 mi West 13.8 mph 23.0 mph N/A   Overcast
10:35 AM 35.6 °F 25.9 °F 33.8 °F 93% 30.08 in 10.0 mi WNW 16.1 mph 21.9 mph N/A   Overcast
10:55 AM 37.4 °F 28.5 °F 32.0 °F 81% 30.08 in 10.0 mi West 15.0 mph 19.6 mph N/A   Overcast
11:35 AM 37.4 °F 30.3 °F 33.8 °F 87% 30.10 in 10.0 mi West 10.4 mph 21.9 mph N/A   Overcast
11:55 AM 37.4 °F 29.3 °F 32.0 °F 81% 30.10 in 10.0 mi West 12.7 mph 20.7 mph N/A   Overcast
1:15 PM 37.4 °F 27.5 °F 32.0 °F 81% 30.13 in 10.0 mi West 18.4 mph 27.6 mph N/A   Overcast
1:35 PM 37.4 °F 26.4 °F 30.2 °F 75% 30.14 in 10.0 mi West 23.0 mph 29.9 mph N/A   Overcast
1:55 PM 37.4 °F 27.2 °F 28.4 °F 70% 30.15 in 10.0 mi West 19.6 mph 25.3 mph N/A   Overcast
2:15 PM 37.4 °F 26.9 °F 28.4 °F 70% 30.17 in 10.0 mi West 20.7 mph 29.9 mph N/A   Overcast
2:35 PM 37.4 °F 28.5 °F 28.4 °F 70% 30.18 in 10.0 mi West 15.0 mph 26.5 mph N/A   Overcast
3:15 PM 35.6 °F 24.8 °F 28.4 °F 75% 30.20 in 10.0 mi West 19.6 mph 24.2 mph N/A   Overcast
3:35 PM 35.6 °F 27.1 °F 26.6 °F 70% 30.21 in 10.0 mi West 12.7 mph 24.2 mph N/A   Overcast
3:55 PM 37.4 °F 29.8 °F 28.4 °F 70% 30.22 in 10.0 mi West 11.5 mph 20.7 mph N/A   Overcast
4:15 PM 37.4 °F 29.3 °F 26.6 °F 65% 30.22 in 10.0 mi West 12.7 mph - N/A   Overcast
4:35 PM 37.4 °F 30.3 °F 26.6 °F 65% 30.22 in 10.0 mi West 10.4 mph - N/A   Overcast
4:55 PM 37.4 °F 28.9 °F 26.6 °F 65% 30.23 in 10.0 mi West 13.8 mph 20.7 mph N/A   Overcast
5:15 PM 35.6 °F 26.2 °F 24.8 °F 65% 30.23 in 10.0 mi WNW 15.0 mph 21.9 mph N/A   Scattered Clouds
5:35 PM 35.6 °F 29.2 °F 24.8 °F 65% 30.24 in 10.0 mi WNW 8.1 mph - N/A   Partly Cloudy
5:55 PM 35.6 °F 29.9 °F 26.6 °F 70% 30.25 in 10.0 mi WNW 6.9 mph - N/A   Partly Cloudy
6:15 PM 33.8 °F 26.4 °F 26.6 °F 75% 30.25 in 10.0 mi WNW 9.2 mph - N/A   Partly Cloudy
6:35 PM 33.8 °F 26.4 °F 26.6 °F 75% 30.26 in 10.0 mi WNW 9.2 mph - N/A   Clear
6:55 PM 32.0 °F 27.5 °F 26.6 °F 80% 30.28 in 10.0 mi West 4.6 mph - N/A   Clear
7:15 PM 32.0 °F 27.5 °F 26.6 °F 80% 30.28 in 10.0 mi West 4.6 mph - N/A   Clear
7:35 PM 32.0 °F - 28.4 °F 87% 30.29 in 10.0 mi Calm Calm - N/A   Clear
7:55 PM 32.0 °F 28.7 °F 28.4 °F 87% 30.30 in 10.0 mi West 3.5 mph - N/A   Clear
8:35 PM 28.4 °F 24.6 °F 28.4 °F 100% 30.32 in 10.0 mi WSW 3.5 mph - N/A   Clear
8:55 PM 28.4 °F - 28.4 °F 100% 30.32 in 10.0 mi Calm Calm - N/A   Unknown
9:15 PM 28.4 °F - 28.4 °F 100% 30.32 in 10.0 mi Calm Calm - N/A   Unknown
9:35 PM 28.4 °F - 28.4 °F 100% 30.33 in 10.0 mi Calm Calm - N/A   Clear
9:55 PM 28.4 °F - 28.4 °F 100% 30.34 in 10.0 mi Calm Calm - N/A   Clear
10:15 PM 28.4 °F 24.6 °F 28.4 °F 100% 30.34 in 10.0 mi South 3.5 mph - N/A   Clear
10:35 PM 28.4 °F 24.6 °F 28.4 °F 100% 30.34 in 10.0 mi SSE 3.5 mph - N/A   Clear
10:55 PM 28.4 °F 24.6 °F 28.4 °F 100% 30.34 in 10.0 mi SSE 3.5 mph - N/A   Clear
11:15 PM 28.4 °F 24.6 °F 28.4 °F 100% 30.33 in 10.0 mi SSE 3.5 mph - N/A   Clear
11:35 PM 28.4 °F 23.3 °F 28.4 °F 100% 30.33 in 10.0 mi SSE 4.6 mph - N/A   Clear
11:55 PM 28.4 °F 23.3 °F 28.4 °F 100% 30.33 in 10.0 mi SSE 4.6 mph - N/A   Clear